This is the latest recevied weather packets stored in our database for station/object OK1KKY-18. If no packets are shown the sender has not sent any weather packets the latest 10 day(s).
| Time | Temp. | Humidity | Pressure | Rain* | Wind** | Luminosity | Snow |
|---|---|---|---|---|---|---|---|
| 1787855844 | 15.56° C | 85% | 1019.9 hPa | - | - | - | - |
| 1787855243 | 16.11° C | 83% | 1019.9 hPa | - | - | - | - |
| 1787854643 | 16.11° C | 83% | 1019.9 hPa | - | - | - | - |
| 1787854043 | 16.67° C | 81% | 1019.9 hPa | - | - | - | - |
| 1787853443 | 17.22° C | 81% | 1019.8 hPa | - | - | - | - |
| 1787852843 | 17.22° C | 81% | 1020 hPa | - | - | - | - |
| 1787852243 | 17.78° C | 79% | 1020.2 hPa | - | - | - | - |
| 1787851643 | 18.33° C | 77% | 1020 hPa | - | - | - | - |
| 1787851043 | 18.33° C | 76% | 1020.1 hPa | - | - | - | - |
| 1787850443 | 18.89° C | 76% | 1020.1 hPa | - | - | - | - |
| 1787849843 | 18.89° C | 72% | 1020.1 hPa | - | - | - | - |
| 1787849243 | 20° C | 69% | 1020.2 hPa | - | - | - | - |
| 1787848643 | 20.56° C | 64% | 1020 hPa | - | - | - | - |
| 1787848043 | 21.67° C | 60% | 1019.9 hPa | - | - | - | - |
| 1787847443 | 21.67° C | 54% | 1019.7 hPa | - | - | - | - |
| 1787846843 | 21.67° C | 58% | 1019.8 hPa | - | - | - | - |
| 1787846243 | 22.22° C | 54% | 1020 hPa | - | - | - | - |
| 1787845643 | 22.22° C | 52% | 1020.3 hPa | - | - | - | - |
| 1787845043 | 22.78° C | 51% | 1020.4 hPa | - | - | - | - |
| 1787844443 | 22.78° C | 52% | 1020.4 hPa | - | - | - | - |
| 1787843843 | 23.33° C | 51% | 1020.4 hPa | - | - | - | - |
| 1787843242 | 22.78° C | 50% | 1020.4 hPa | - | - | - | - |
| 1787842043 | 23.33° C | 50% | 1020.4 hPa | - | - | - | - |
| 1787841443 | 23.33° C | 49% | 1020.4 hPa | - | - | - | - |
| 1787840843 | 23.33° C | 49% | 1020.5 hPa | - | - | - | - |
* Rain since midnight (hover to see other rain measurements)
** Current wind speed in m/s (hover to see current wind gust speed)